Weather History for Needles, CA

Change the Weather History Date:

Friday, November 15, 2013

  Actual Average Record
Temperature  
Mean Temperature 72 °F -  
Max Temperature 82 °F 71 °F 86 °F (1999)
Min Temperature 61 °F 47 °F 37 °F (1964)
Cooling Degree Days 6    
Growing Degree Days 22 (Base 50)    
Moisture  
Dew Point 28 °F    
Average Humidity 21    
Maximum Humidity 26    
Minimum Humidity 13    
Precipitation  
Precipitation 0.00 in - - ()
Sea Level Pressure  
Sea Level Pressure 29.53 in    
Wind  
Wind Speed 5 mph (WSW)    
Max Wind Speed 16 mph    
Max Gust Speed 20 mph    
Visibility 10 miles    
Events      
Averages and records for this station are not official NWS values.
T = Trace of Precipitation, MM = Missing Value Source: NWS Daily Summary

Daily Weather History Graph

Daily Weather History Graph

Search for Another Location

Airport:

Trip Planner

Search our weather history database for the weather conditions in past years. The results will help you decide how hot, cold, wet, or windy it might be!

Date:

Astronomy

Nov. 15, 2013 Rise Set
Actual Time 6:12 AM PST 4:33 PM PST
Civil Twilight 5:45 AM PST 4:59 PM PST
Nautical Twilight 5:15 AM PST 5:30 PM PST
Astronomical Twilight 4:45 AM PST 6:00 PM PST
Moon 3:29 PM PST (11/15) 4:17 AM PST (11/15)
Length of Visible Light 11h 14m
Length of Day
10h 20m
Waxing Gibbous, 97% of the Moon is Illuminated
Nov 15
Waxing Gibbous
Nov 17
Full
Nov 25
Last Quarter
Dec 2
New
Dec 9
First Quarter

Hourly Weather History & Observations

Time (PST) Temp. Dew Point Humidity Pressure Visibility Wind Dir Wind Speed Gust Speed Precip Events Conditions
12:56 AM 64.0 °F 25.0 °F 23% 29.63 in 10.0 mi Calm Calm - N/A   Clear
1:56 AM 63.0 °F 25.0 °F 24% 29.60 in 10.0 mi WSW 3.5 mph - N/A   Clear
2:56 AM 64.0 °F 26.1 °F 24% 29.59 in 10.0 mi Calm Calm - N/A   Clear
3:56 AM 63.0 °F 26.1 °F 25% 29.60 in 10.0 mi NNW 5.8 mph - N/A   Clear
4:56 AM 64.9 °F 26.1 °F 23% 29.58 in 10.0 mi SSW 8.1 mph - N/A   Clear
5:56 AM 61.0 °F 26.1 °F 26% 29.59 in 10.0 mi Calm Calm - N/A   Clear
6:56 AM 66.0 °F 28.9 °F 25% 29.57 in 10.0 mi SW 10.4 mph - N/A   Clear
7:56 AM 71.1 °F 30.9 °F 23% 29.57 in 10.0 mi East 3.5 mph - N/A   Clear
8:56 AM 73.0 °F 34.0 °F 24% 29.55 in 10.0 mi South 8.1 mph - N/A   Clear
9:56 AM 79.0 °F 35.1 °F 20% 29.54 in 10.0 mi SSW 16.1 mph - N/A   Clear
10:56 AM 79.0 °F 35.1 °F 20% 29.53 in 10.0 mi SSW 10.4 mph 19.6 mph N/A   Clear
11:56 AM 80.1 °F 36.0 °F 20% 29.50 in 10.0 mi South 10.4 mph - N/A   Clear
12:56 PM 82.0 °F 36.0 °F 19% 29.47 in 10.0 mi SSW 8.1 mph - N/A   Clear
1:56 PM 82.9 °F 30.0 °F 15% 29.46 in 10.0 mi WSW 11.5 mph - N/A   Clear
2:56 PM 82.0 °F 27.0 °F 13% 29.46 in 10.0 mi WNW 12.7 mph - N/A   Clear
3:56 PM 80.1 °F 26.1 °F 14% 29.46 in 10.0 mi West 8.1 mph - N/A   Clear
4:56 PM 75.0 °F 25.0 °F 16% 29.47 in 10.0 mi West 9.2 mph - N/A   Clear
5:56 PM 72.0 °F 25.0 °F 17% 29.49 in 10.0 mi WNW 10.4 mph - N/A   Clear
6:56 PM 72.0 °F 23.0 °F 16% 29.49 in 10.0 mi West 9.2 mph - N/A   Clear
7:56 PM 72.0 °F 24.1 °F 17% 29.50 in 10.0 mi WNW 9.2 mph - N/A   Clear
8:56 PM 68.0 °F 24.1 °F 19% 29.52 in 10.0 mi Calm Calm - N/A   Clear
9:56 PM 64.0 °F 24.1 °F 22% 29.52 in 10.0 mi WSW 9.2 mph - N/A   Clear
10:56 PM 63.0 °F 25.0 °F 24% 29.54 in 10.0 mi South 5.8 mph - N/A   Clear
11:56 PM 61.0 °F 25.0 °F 25% 29.55 in 10.0 mi Calm Calm - N/A   Clear